Location: Crab Orchard
(37.7292°N, 88.8042°W)
Time: 22:34:25
(UTC+00:00)

STARLINK-60 - Pass Details

Date: 08 December 2019
Orbit: 412 x 419 km, 53.0° (Epoch: 22 January)

Event Time Altitude Azimuth Distance (km) Brightness Sun altitude
Rises 23:42:16 0° 233° (SW) 2,377 8.4 -12.8°
Reaches altitude 10° 23:44:23 10° 237° (WSW) 1,513 7.2 -13.2°
Maximum altitude 23:47:45 65° 319° (NW) 473 3.3 -13.8°
Enters shadow 23:49:44 23° 37° (NE) 966 4.4 -14.2°
